Palacios, TX

8:04 AM CDT on May 30, 2017 (GMT -0500)
Palacios Municipal

Weather History for KPSX - February, 2012

Change the Weather History Date:

Thursday, February 16, 2012

  Actual Average Record
Temperature  
Mean Temperature 64 °F -  
Max Temperature 71 °F 67 °F 82 °F (1982)
Min Temperature 57 °F 45 °F 26 °F (1951)
Degree Days  
Heating Degree Days 1    
Growing Degree Days 14 (Base 50)    
Moisture  
Dew Point 60 °F    
Average Humidity 94    
Maximum Humidity 100    
Minimum Humidity 73    
Precipitation  
Precipitation 0.01 in - - ()
Sea Level Pressure  
Sea Level Pressure 30.07 in    
Wind  
Wind Speed 7 mph (NE)    
Max Wind Speed 17 mph    
Max Gust Speed -    
Visibility 5 miles    
Events Fog    
Averages and records for this station are not official NWS values.
T = Trace of Precipitation, MM = Missing Value Source: NWS Daily Summary

Daily Weather History Graph

Daily Weather History Graph

Search for Another Location

Airport or City:

Trip Planner

Search our weather history database for the weather conditions in past years. The results will help you decide how hot, cold, wet, or windy it might be!

Date:

Astronomy

Feb. 16, 2012 Rise Set
Actual Time 7:02 AM CST 6:15 PM CST
Civil Twilight 6:38 AM CST 6:39 PM CST
Nautical Twilight 6:11 AM CST 7:07 PM CST
Astronomical Twilight 5:43 AM CST 7:35 PM CST
Moon 2:44 AM CST (2/16) 1:24 PM CST (2/16)
Length of Visible Light 12h 00m
Length of Day
11h 12m
Waning Crescent, 28% of the Moon is Illuminated
Feb 16
Waning Crescent
Feb 21
New
Feb 29
First Quarter
Mar 8
Full
Mar 14
Last Quarter

Hourly Weather History & Observations

Time (CST) Temp. Dew Point Humidity Pressure Visibility Wind Dir Wind Speed Gust Speed Precip Events Conditions
12:53 AM 62.1 °F 62.1 °F 100% 30.03 in 0.2 mi NE 3.5 mph - N/A Fog Fog
1:53 AM 63.0 °F 63.0 °F 100% 30.03 in 0.2 mi ENE 3.5 mph - 0.01 in Fog Fog
2:53 AM 61.0 °F 61.0 °F 100% 30.02 in 0.5 mi ENE 4.6 mph - N/A Fog Fog
3:53 AM 60.1 °F 60.1 °F 100% 30.02 in 0.2 mi NE 5.8 mph - N/A Fog Fog
4:53 AM 59.0 °F 59.0 °F 100% 30.04 in 0.2 mi ENE 4.6 mph - N/A Fog Fog
5:42 AM 57.2 °F 57.2 °F 100% 30.04 in 0.5 mi NE 5.8 mph - N/A Fog Fog
5:53 AM 57.0 °F 57.0 °F 100% 30.05 in 0.5 mi NE 5.8 mph - N/A Fog Fog
6:09 AM 59.0 °F 59.0 °F 100% 30.05 in 2.0 mi NE 5.8 mph - N/A   Mist
6:18 AM 59.0 °F 59.0 °F 100% 30.06 in 4.0 mi NE 4.6 mph - N/A   Mist
6:29 AM 59.0 °F 59.0 °F 100% 30.07 in 2.0 mi North 9.2 mph - N/A   Partly Cloudy
6:32 AM 59.0 °F 59.0 °F 100% 30.06 in 1.0 mi North 8.1 mph - N/A   Mist
6:40 AM 60.8 °F 60.8 °F 100% 30.07 in 0.8 mi NNE 8.1 mph - N/A   Mist
6:43 AM 60.8 °F 60.8 °F 100% 30.07 in 1.2 mi North 6.9 mph - N/A   Scattered Clouds
6:47 AM 60.8 °F 60.8 °F 100% 30.06 in 3.0 mi North 8.1 mph - N/A   Scattered Clouds
6:53 AM 60.1 °F 60.1 °F 100% 30.06 in 4.0 mi NNE 9.2 mph - N/A   Scattered Clouds
7:21 AM 60.8 °F 60.8 °F 100% 30.09 in 1.5 mi NNE 9.2 mph - N/A   Mostly Cloudy
7:29 AM 60.8 °F 60.8 °F 100% 30.10 in 0.2 mi NNE 10.4 mph - N/A Fog Fog
7:46 AM 60.8 °F 60.8 °F 100% 30.10 in 2.0 mi NNE 9.2 mph - N/A   Overcast
7:53 AM 61.0 °F 61.0 °F 100% 30.10 in 3.0 mi NNE 9.2 mph - N/A   Mostly Cloudy
8:00 AM 60.8 °F 60.8 °F 100% 30.10 in 2.5 mi NE 8.1 mph - N/A   Mostly Cloudy
8:09 AM 60.8 °F 60.8 °F 100% 30.10 in 3.0 mi NNE 8.1 mph - N/A   Mostly Cloudy
8:53 AM 61.0 °F 61.0 °F 100% 30.15 in 5.0 mi Calm Calm - N/A   Scattered Clouds
9:53 AM 62.1 °F 61.0 °F 96% 30.16 in 10.0 mi NNE 10.4 mph - N/A   Mostly Cloudy
10:53 AM 61.0 °F 57.9 °F 90% 30.17 in 10.0 mi North 17.3 mph - N/A   Clear
11:53 AM 62.1 °F 55.0 °F 78% 30.13 in 10.0 mi North 15.0 mph - N/A   Clear
12:53 PM 64.0 °F 55.9 °F 75% 30.11 in 10.0 mi NNE 13.8 mph - N/A   Mostly Cloudy
1:53 PM 68.0 °F 60.1 °F 76% 30.06 in 10.0 mi NE 15.0 mph - N/A   Clear
2:53 PM 70.0 °F 61.0 °F 73% 30.06 in 10.0 mi ENE 9.2 mph - N/A   Clear
3:53 PM 71.1 °F 62.1 °F 73% 30.04 in 10.0 mi ENE 13.8 mph - N/A   Clear
4:53 PM 70.0 °F 63.0 °F 78% 30.04 in 10.0 mi East 9.2 mph - N/A   Clear
5:53 PM 66.9 °F 59.0 °F 76% 30.05 in 10.0 mi East 9.2 mph - N/A   Clear
6:53 PM 64.9 °F 57.9 °F 78% 30.06 in 10.0 mi East 10.4 mph - N/A   Clear
7:53 PM 63.0 °F 59.0 °F 87% 30.05 in 10.0 mi ENE 11.5 mph - N/A   Mostly Cloudy
8:53 PM 62.1 °F 61.0 °F 96% 30.07 in 10.0 mi ENE 9.2 mph - N/A   Scattered Clouds
9:03 PM 62.6 °F 60.8 °F 94% 30.08 in 9.0 mi East 8.1 mph - N/A   Mostly Cloudy
9:18 PM 62.6 °F 60.8 °F 94% 30.09 in 9.0 mi ENE 5.8 mph - N/A   Scattered Clouds
9:53 PM 62.1 °F 60.1 °F 93% 30.09 in 8.0 mi East 5.8 mph - N/A   Clear
10:53 PM 61.0 °F 61.0 °F 100% 30.07 in 8.0 mi NE 4.6 mph - N/A   Clear
11:53 PM 62.1 °F 61.0 °F 96% 30.08 in 8.0 mi NNE 3.5 mph - N/A   Scattered Clouds